[[{"header":{"parameterUnit":"m.s-1","parameterCategory":1,"la1":30.2991,"la2":30.254,"lo1":-89.0895,"lo2":-89.0444,"dy":0.0017,"dx":0.0017,"nx":28,"ny":28,"refTime":"2025-07-03T03:00:00:Z","depth":0,"parameterNumber":2,"parameterNumberName":"U-component_of_WINDS"},"data":[0,0,0,0,0,0,0,0,0,0,0,0,0,0,0,0,0,0,0,0,0,0,0,0,0,0,0,0,0,0,0,0,0,0,0,0,0,0,0,0,0,0,0,0,0,0,0,0,0,0,0,0,0,0,0,0,0,0,0.4306,0.4308,0,0.446,0.4462,0.4463,0.451,0.4509,0.4508,0.4507,0.4664,0.4669,0.4674,0,0,0,0,0,0,0,0,0,0,0,0,0,0.4054,0.4059,0.4306,0.4308,0.431,0.446,0.4462,0.4464,0.451,0.4509,0.4508,0.4507,0.4663,0.4668,0.4674,0,0,0,0,0,0,0,0,0,0,0,0,0,0.4181,0.406,0.4306,0.4351,0.4356,0.4459,0.4462,0.4464,0.451,0.4509,0.4508,0.4506,0.4661,0.4668,0.4675,0.4744,0,0,0.4698,0.4701,0,0,0,0,0,0,0,0,0.4174,0.419,0.4342,0.4348,0.4354,0.4464,0.4431,0.4558,0.451,0.4452,0.4507,0.4506,0.4599,0.4611,0.4642,0.4751,0.4758,0.4698,0.4703,0.4706,0.4708,0,0,0,0,0,0,0,0.4165,0.4184,0.4367,0.4345,0.4352,0.4364,0.4381,0.4455,0.453,0.4457,0.446,0.4478,0.4602,0.4635,0.4646,0.476,0.4698,0.4705,0.4709,0.4712,0.4938,0.494,0,0,0,0,0,0,0.4149,0.4176,0.4362,0.4372,0.426,0.437,0.4388,0.443,0.4529,0.4543,0.4479,0.448,0.4623,0.4638,0.4652,0.4743,0.4706,0.4713,0.4717,0.4937,0.4938,0.494,0,0,0,0,0,0,0.4143,0.4165,0.4356,0.4275,0.43,0.4375,0.4422,0.4434,0.4468,0.4546,0.456,0.4499,0.4623,0.4642,0.4722,0.4749,0.4716,0.4723,0.4935,0.4937,0.4939,0.4922,0,0,0,0,0,0,0.4136,0.4162,0.4189,0.4275,0.4305,0.4422,0.4423,0.4438,0.448,0.4483,0.4569,0.4582,0.4623,0.4711,0.4729,0.4758,0.4728,0.4933,0.4936,0.4939,0.492,0.4923,0.4926,0,0,0,0,0,0.4126,0.4176,0.419,0.4212,0.4339,0.4424,0.444,0.4487,0.4482,0.451,0.4561,0.4579,0.4742,0.4718,0.474,0.4771,0.4931,0.4935,0.4938,0.4919,0.4923,0.4926,0,0,0,0,0,0,0.4089,0.4188,0.4204,0.4284,0.4345,0.4431,0.4467,0.4489,0.4553,0.4552,0.4608,0.4627,0.4704,0.4745,0.4717,0.4845,0.4838,0.4846,0.4816,0.482,0.4822,0.4812,0.4735,0,0,0,0,0,0.4091,0.4151,0.4234,0.4296,0.4327,0.4392,0.443,0.4462,0.4527,0.4553,0.461,0.4673,0.4739,0.4781,0.4846,0.4926,0.4948,0.4959,0.4961,0.4963,0.497,0.502,0.5027,0.4952,0.4952,0.4952,0,0,0.4093,0.4155,0.419,0.4291,0.4342,0.4405,0.4413,0.4478,0.4525,0.4563,0.4643,0.4687,0.4762,0.4843,0.4882,0.488,0.4996,0.4968,0.4969,0.4975,0.5024,0.5031,0.5037,0.4954,0.4954,0.4954,0,0,0.4132,0.4183,0.4242,0.4294,0.4372,0.4416,0.443,0.4514,0.4545,0.4627,0.4658,0.4715,0.4826,0.488,0.4921,0.4983,0.5004,0.5002,0.5017,0.5065,0.5071,0.5076,0.5102,0.511,0.5008,0.5008,0.5008,0,0.4125,0.422,0.427,0.4335,0.438,0.4418,0.448,0.4528,0.4622,0.4653,0.465,0.4794,0.4846,0.4942,0.4958,0.4989,0.5009,0.4993,0.5066,0.5072,0.5078,0.5103,0.5112,0.5008,0.5008,0.5008,0.5008,0,0.4211,0.4276,0.4315,0.4408,0.4457,0.4519,0.458,0.4624,0.4652,0.4696,0.478,0.4845,0.4926,0.495,0.4977,0.5052,0.5049,0.5055,0.5049,0.5084,0.5109,0.5118,0.5007,0.5008,0.5008,0.5008,0,0,0.4228,0.435,0.4364,0.4408,0.4499,0.4551,0.4617,0.4696,0.4735,0.4799,0.4858,0.4953,0.496,0.5007,0.5041,0.5082,0.5132,0.5084,0.5087,0.5093,0.5223,0.522,0.523,0.5145,0.5147,0.5149,0.5218,0,0.428,0.4399,0.4448,0.4545,0.4608,0.4647,0.4705,0.4767,0.4811,0.4872,0.492,0.4989,0.4991,0.5021,0.5063,0.5117,0.5159,0.5112,0.5203,0.5205,0.5185,0.5242,0.5238,0.53,0.5227,0.5229,0.523,0,0.4356,0.4424,0.4527,0.4614,0.4643,0.4694,0.4773,0.483,0.4903,0.4932,0.4986,0.5018,0.5091,0.5079,0.5181,0.5148,0.5188,0.522,0.5224,0.5236,0.5221,0.5258,0.532,0.533,0.5245,0.5244,0.5243,0,0.4362,0.4479,0.4558,0.4594,0.4696,0.4732,0.4776,0.4848,0.4894,0.4963,0.4994,0.507,0.5112,0.5171,0.5224,0.521,0.5323,0.5314,0.5351,0.535,0.5374,0.5373,0.5446,0.5396,0.5395,0.5395,0.5395,0,0.4416,0.4479,0.4563,0.4611,0.4684,0.4739,0.481,0.4857,0.4921,0.4981,0.5018,0.5073,0.5138,0.5202,0.5243,0.5324,0.5342,0.5369,0.538,0.5368,0.5365,0.5396,0.5394,0.5398,0.5397,0.5397,0.5396,0,0.4436,0.4494,0.4583,0.4674,0.4698,0.4748,0.4826,0.4876,0.4922,0.4997,0.5018,0.5091,0.5169,0.5227,0.5327,0.5355,0.5443,0.5452,0.5418,0.5424,0.5459,0.5457,0.5558,0.5576,0.551,0.551,0.5511,0,0.4467,0.4517,0.4614,0.4658,0.4702,0.477,0.4819,0.4876,0.4925,0.5014,0.5053,0.5134,0.5202,0.5325,0.5387,0.5465,0.5479,0.5509,0.5491,0.5478,0.5484,0.5481,0.5488,0.5512,0.5513,0.5513,0.5513,0,0.4518,0.4546,0.4614,0.4694,0.4751,0.4816,0.4881,0.4915,0.4984,0.5037,0.5118,0.5171,0.5275,0.5356,0.5441,0.5488,0.5513,0.5519,0.5532,0.5521,0.5501,0.5516,0.5428,0.5516,0.5516,0.5516,0.5515,0.5515,0.4547,0.4595,0.4672,0.4748,0.4804,0.4866,0.4918,0.4972,0.5041,0.5131,0.516,0.5245,0.532,0.5437,0.5485,0.5553,0.5553,0.5571,0.5577,0.5581,0.5582,0.5488,0.5568,0.5568,0.5568,0.5568,0.5568,0,0.4603,0.4655,0.4725,0.4817,0.4878,0.4897,0.4972,0.5021,0.5095,0.5164,0.5231,0.5326,0.5405,0.5475,0.5558,0.56,0.5614,0.562,0.5619,0.563,0.5576,0.5557,0.5607,0.5607,0.5607,0.5607,0.5607,0.5607,0.4639,0.4723,0.476,0.4872,0.4924,0.5008,0.505,0.5108,0.5163,0.5268,0.5335,0.538,0.5451,0.554,0.5615,0.5633,0.5664,0.5667,0.5689,0.5638,0.5633,0.5629,0.5612,0.5673,0.5673,0.5739,0.5739,0.574]},{"header":{"parameterUnit":"m.s-1","parameterCategory":1,"la1":30.2991,"la2":30.254,"lo1":-89.0895,"lo2":-89.0444,"dy":0.0017,"dx":0.0017,"nx":28,"ny":28,"refTime":"2025-07-03T03:00:00:Z","depth":0,"parameterNumber":3,"parameterNumberName":"V-component_of_WINDS"},"data":[0,0,0,0,0,0,0,0,0,0,0,0,0,0,0,0,0,0,0,0,0,0,0,0,0,0,0,0,0,0,0,0,0,0,0,0,0,0,0,0,0,0,0,0,0,0,0,0,0,0,0,0,0,0,0,0,0,0,-2.1196,-2.1196,0,-2.1206,-2.1206,-2.1206,-2.1205,-2.1205,-2.1205,-2.1205,-2.1214,-2.1214,-2.1215,0,0,0,0,0,0,0,0,0,0,0,0,0,-2.1175,-2.1175,-2.1196,-2.1196,-2.1196,-2.1206,-2.1206,-2.1206,-2.1205,-2.1205,-2.1205,-2.1205,-2.1214,-2.1214,-2.1215,0,0,0,0,0,0,0,0,0,0,0,0,0,-2.1184,-2.1175,-2.1196,-2.1197,-2.1197,-2.1206,-2.1206,-2.1206,-2.1205,-2.1205,-2.1205,-2.1205,-2.1214,-2.1214,-2.1215,-2.1223,0,0,-2.1216,-2.1217,0,0,0,0,0,0,0,0,-2.1184,-2.1185,-2.1197,-2.1197,-2.1197,-2.1204,-2.1202,-2.1212,-2.1205,-2.1202,-2.1205,-2.1204,-2.1211,-2.1212,-2.1214,-2.1223,-2.1224,-2.1217,-2.1217,-2.1217,-2.1217,0,0,0,0,0,0,0,-2.1183,-2.1185,-2.12,-2.1197,-2.1197,-2.1196,-2.1198,-2.1204,-2.1208,-2.1202,-2.1202,-2.1204,-2.1211,-2.1213,-2.1214,-2.1224,-2.1217,-2.1217,-2.1217,-2.1218,-2.1241,-2.1241,0,0,0,0,0,0,-2.1182,-2.1184,-2.12,-2.12,-2.119,-2.1197,-2.1198,-2.1202,-2.1208,-2.1208,-2.1204,-2.1204,-2.1212,-2.1213,-2.1214,-2.1225,-2.1217,-2.1218,-2.1218,-2.1241,-2.1241,-2.1242,0,0,0,0,0,0,-2.1182,-2.1184,-2.1199,-2.1192,-2.1194,-2.1198,-2.1202,-2.1202,-2.1205,-2.1209,-2.1209,-2.1206,-2.1212,-2.1214,-2.1221,-2.1225,-2.1218,-2.1218,-2.1241,-2.1241,-2.1241,-2.1245,0,0,0,0,0,0,-2.1181,-2.1184,-2.1187,-2.1192,-2.1195,-2.1206,-2.1202,-2.1203,-2.1206,-2.1206,-2.1211,-2.1211,-2.1212,-2.122,-2.1222,-2.1226,-2.1219,-2.124,-2.1241,-2.1241,-2.1245,-2.1245,-2.1246,0,0,0,0,0,-2.1181,-2.1187,-2.1187,-2.1189,-2.1199,-2.1206,-2.1207,-2.1209,-2.1207,-2.121,-2.1212,-2.1211,-2.1224,-2.1221,-2.1223,-2.1227,-2.124,-2.1241,-2.1241,-2.1244,-2.1245,-2.1246,0,0,0,0,0,0,-2.1181,-2.1188,-2.1188,-2.1197,-2.1201,-2.1206,-2.121,-2.121,-2.1215,-2.1214,-2.1215,-2.1217,-2.1224,-2.1226,-2.1222,-2.1235,-2.1232,-2.1233,-2.1233,-2.1235,-2.1235,-2.1235,-2.1219,0,0,0,0,0,-2.1183,-2.1189,-2.1194,-2.1201,-2.1203,-2.1206,-2.121,-2.121,-2.1215,-2.1216,-2.1219,-2.1223,-2.1229,-2.1232,-2.1237,-2.1245,-2.1246,-2.1249,-2.125,-2.125,-2.1251,-2.1256,-2.1257,-2.1244,-2.1244,-2.1244,0,0,-2.1185,-2.119,-2.1193,-2.1201,-2.1205,-2.121,-2.1208,-2.1214,-2.1218,-2.1217,-2.1225,-2.1227,-2.1231,-2.124,-2.1243,-2.1242,-2.1255,-2.1251,-2.1252,-2.1252,-2.1256,-2.1258,-2.1259,-2.1244,-2.1244,-2.1244,0,0,-2.1193,-2.1197,-2.1203,-2.1207,-2.1213,-2.1215,-2.1217,-2.1222,-2.1224,-2.1231,-2.1231,-2.1236,-2.1244,-2.1248,-2.125,-2.126,-2.1259,-2.1262,-2.1266,-2.1271,-2.1272,-2.1273,-2.1276,-2.1277,-2.1263,-2.1263,-2.1263,0,-2.1195,-2.1204,-2.1207,-2.1213,-2.1216,-2.1217,-2.1223,-2.1227,-2.1233,-2.1236,-2.1234,-2.1245,-2.1248,-2.1257,-2.126,-2.1262,-2.1264,-2.1261,-2.1271,-2.1272,-2.1273,-2.1276,-2.1278,-2.1263,-2.1263,-2.1263,-2.1263,0,-2.1207,-2.1213,-2.1217,-2.1225,-2.1229,-2.1235,-2.1238,-2.1242,-2.1243,-2.1245,-2.1253,-2.1257,-2.1263,-2.1265,-2.1265,-2.1274,-2.1273,-2.1271,-2.1268,-2.1275,-2.1278,-2.1279,-2.1263,-2.1263,-2.1263,-2.1263,0,0,-2.1214,-2.1223,-2.1225,-2.1228,-2.1235,-2.124,-2.1246,-2.1252,-2.1256,-2.126,-2.1266,-2.1273,-2.1272,-2.1275,-2.1276,-2.1281,-2.1288,-2.1279,-2.1279,-2.128,-2.1297,-2.1298,-2.1299,-2.1288,-2.1288,-2.1288,-2.1297,0,-2.1222,-2.1234,-2.1237,-2.1247,-2.1252,-2.1253,-2.1259,-2.1263,-2.1266,-2.1271,-2.1274,-2.1279,-2.1277,-2.1279,-2.1283,-2.1286,-2.1291,-2.1286,-2.1292,-2.1292,-2.129,-2.1301,-2.1301,-2.1309,-2.1298,-2.1298,-2.1298,0,-2.1233,-2.1239,-2.1249,-2.1256,-2.1258,-2.1263,-2.1269,-2.1274,-2.1279,-2.1281,-2.1285,-2.1286,-2.1292,-2.1289,-2.1298,-2.1294,-2.1297,-2.1299,-2.1299,-2.1299,-2.1295,-2.1301,-2.1312,-2.1313,-2.13,-2.13,-2.13,0,-2.1237,-2.1247,-2.1255,-2.1258,-2.1266,-2.1269,-2.1273,-2.1278,-2.1281,-2.1287,-2.1289,-2.1295,-2.1298,-2.1302,-2.1304,-2.1302,-2.1313,-2.131,-2.1314,-2.1314,-2.1316,-2.1316,-2.1327,-2.1319,-2.1318,-2.1318,-2.1318,0,-2.1245,-2.1252,-2.1257,-2.1262,-2.1269,-2.1273,-2.128,-2.1283,-2.1287,-2.1293,-2.1294,-2.1298,-2.1301,-2.1306,-2.1308,-2.1315,-2.1316,-2.1318,-2.1318,-2.1317,-2.1317,-2.1319,-2.1318,-2.1319,-2.1319,-2.1319,-2.1319,0,-2.1251,-2.1255,-2.1264,-2.127,-2.1272,-2.1277,-2.1283,-2.1288,-2.129,-2.1297,-2.1299,-2.1303,-2.1309,-2.1312,-2.1319,-2.1321,-2.1328,-2.1328,-2.1327,-2.1327,-2.1331,-2.133,-2.1343,-2.1345,-2.1336,-2.1336,-2.1336,0,-2.1256,-2.1261,-2.1268,-2.1272,-2.1276,-2.1282,-2.1286,-2.1289,-2.1293,-2.13,-2.1304,-2.131,-2.1315,-2.1325,-2.1329,-2.1334,-2.1334,-2.1339,-2.1335,-2.1334,-2.1334,-2.1333,-2.1334,-2.1339,-2.1339,-2.1339,-2.1339,0,-2.1264,-2.1266,-2.1272,-2.1279,-2.1284,-2.1289,-2.1294,-2.1297,-2.1302,-2.1306,-2.1313,-2.1317,-2.1325,-2.1331,-2.1337,-2.134,-2.134,-2.134,-2.1342,-2.1341,-2.1339,-2.134,-2.1328,-2.134,-2.134,-2.134,-2.134,-2.134,-2.1269,-2.1273,-2.128,-2.1287,-2.1291,-2.1296,-2.1301,-2.1305,-2.1311,-2.1318,-2.1319,-2.1326,-2.1332,-2.134,-2.1343,-2.1348,-2.1347,-2.1349,-2.1349,-2.135,-2.135,-2.1339,-2.1349,-2.1349,-2.1349,-2.1349,-2.1349,0,-2.1276,-2.1281,-2.1287,-2.1295,-2.13,-2.1301,-2.1307,-2.1311,-2.1318,-2.1323,-2.1328,-2.1336,-2.1342,-2.1346,-2.1352,-2.1356,-2.1356,-2.1357,-2.1357,-2.1357,-2.135,-2.1349,-2.1357,-2.1357,-2.1357,-2.1357,-2.1357,-2.1357,-2.1281,-2.1289,-2.1292,-2.1302,-2.1307,-2.1314,-2.1317,-2.1322,-2.1326,-2.1335,-2.134,-2.1343,-2.1348,-2.1355,-2.136,-2.1361,-2.1363,-2.1365,-2.1365,-2.1359,-2.1358,-2.1357,-2.1355,-2.1365,-2.1365,-2.1372,-2.1372,-2.1372]}]]